Location: Ammerl�gen
(47.2167°N, 9.6000°E)
Time: 21:49:27
(UTC+00:00)

Cosmos 676 Rocket - Visible Passes

Search period start: 29 July 2021 00:00
Search period end: 08 August 2021 00:00
Orbit: 754 x 784 km, 74.0° (Epoch: 28 July)

Date Brightness Start Highest point End Pass type
(mag) Time Alt. Az. Time Alt. Az. Time Alt. Az.
29 Jul 6.5 00:29:53 10° ESE 00:31:26 11° E 00:33:00 10° ENE visible
29 Jul 4.1 02:08:47 20° SSW 02:12:35 79° ESE 02:17:57 10° NNE visible
30 Jul 4.7 01:32:57 24° SSE 01:35:55 49° ESE 01:41:04 10° NNE visible
30 Jul 5.3 03:13:42 10° WSW 03:18:15 28° NW 03:22:51 10° N visible
31 Jul 5.4 00:57:06 22° SE 00:59:22 30° E 01:04:00 10° NE visible
31 Jul 4.7 02:37:23 16° SW 02:41:17 42° WNW 02:46:23 10° N visible
01 Aug 5.9 00:21:13 16° ESE 00:22:54 19° E 00:26:34 10° NE visible
01 Aug 4.1 02:01:30 27° SW 02:04:26 66° WNW 02:09:46 10° NNE visible
01 Aug 6.4 23:45:18 10° ESE 23:46:32 11° E 23:48:05 10° ENE visible
02 Aug 4.0 01:25:35 38° S 01:27:40 79° ESE 01:33:02 10° NNE visible
02 Aug 5.8 03:06:38 10° W 03:10:26 19° NW 03:14:14 10° N visible
03 Aug 4.6 00:49:38 39° SSE 00:51:01 49° ESE 00:56:09 10° NNE visible
03 Aug 5.3 02:29:56 15° WSW 02:33:21 28° NW 02:37:57 10° N visible
04 Aug 5.2 00:13:40 29° ESE 00:14:28 30° E 00:19:05 10° NE visible
04 Aug 4.7 01:53:57 27° WSW 01:56:23 42° WNW 02:01:28 10° N visible
04 Aug 5.8 23:37:41 19° E 23:38:00 19° E 23:41:39 10° NE visible
05 Aug 4.1 01:17:58 44° SW 01:19:31 66° WNW 01:24:51 10° NNE visible
05 Aug 6.2 03:00:10 10° WNW 03:02:43 13° NW 03:05:15 10° NNW visible
05 Aug 6.3 23:01:39 11° E 23:01:39 11° E 23:03:09 10° ENE visible
06 Aug 3.9 00:41:57 63° S 00:42:46 79° ESE 00:48:07 10° NNE visible
06 Aug 5.9 02:22:14 12° W 02:25:31 19° NW 02:29:19 10° N visible
07 Aug 4.4 00:05:54 49° ESE 00:06:07 49° ESE 00:11:15 10° NNE visible
07 Aug 5.4 01:46:11 21° W 01:48:26 28° NW 01:53:02 10° N visible
07 Aug 5.2 23:29:51 30° E 23:29:51 30° E 23:34:10 10° NE visible
